Regional Weather Roundup
Issued by NWS

Home | Current Version | Previous Version | Text Only | Print | Product List | Glossary Off
Versions: 1 2 3 4 5 6 7 8 9 10 11 12 13 14 15 16 17 18 19 20 21 22 23 24 25 26 27 28 29 30 31 32 33 34 35 36 37 38 39 40 41 42 43 44 45 46 47 48 49 50

000
ASUS43 KLMK 190702
RWRKY
KENTUCKY REGIONAL WEATHER ROUNDUP
NATIONAL WEATHER SERVICE LOUISVILLE KY
200 AM EST SUN NOV 19 2017

NOTE "FAIR" INDICATES FEW OR NO CLOUDS BELOW 12,000 FEET
WITH NO SIGNIFICANT WEATHER AND/OR OBSTRUCTIONS TO VISIBILITY.

KYZ001>023-026-027-061>063-070>075-190800-
WESTERN AND SOUTH CENTRAL KENTUCKY

CITY           SKY/WX    TMP DP  RH WIND       PRES   REMARKS
PADUCAH        CLEAR     42  31  64 NW7       30.04R
HENDERSON      CLOUDY    41  35  79 NW14      30.01R
OWENSBORO      NOT AVBL
HOPKINSVILLE   CLOUDY    43  33  68 NW14G22   30.01R
BOWLING GREEN  CLOUDY    43  35  73 NW8G16    29.98R
GLASGOW        NOT AVBL
$$

KYZ024-025-028>034-038-045-046-053-190800-
NORTH CENTRAL KENTUCKY

CITY           SKY/WX    TMP DP  RH WIND       PRES   REMARKS
LOUISVILLE/SDF CLOUDY    42  31  64 NW15G26   29.92R
LOUISVILLE/LOU CLOUDY    42  33  70 W10       29.92R
FORT KNOX      CLOUDY    40  32  71 W12G21    29.91R WCI  33
$$

KYZ035>037-039>044-047>052-055>060-089>105-190800-
NORTHEAST KENTUCKY

CITY           SKY/WX    TMP DP  RH WIND       PRES   REMARKS
LEXINGTON      CLOUDY    41  36  82 W15G26    29.87R
COVINGTON      CLOUDY    40  37  89 W20       29.82R WCI  30
FRANKFORT      CLOUDY    41  34  76 W8G23     29.87R
$$

KYZ054-064>069-076>088-106>120-190800-
SOUTHEAST KENTUCKY

CITY           SKY/WX    TMP DP  RH WIND       PRES   REMARKS
JACKSON        LGT RAIN  40  37  89 W6G23     29.84R FOG
LONDON         CLOUDY    40  36  86 NW16G25   29.89R WCI  31
SOMERSET       NOT AVBL
MIDDLESBORO    DRIZZLE   41  40  94 W9        29.88R
MONTICELLO     LGT RAIN  40  38  93 NW9       29.95R WCI  34
$$





USA.gov is the U.S. government's official web portal to all federal, state and local government web resources and services.